Regional Weather Roundup
Issued by NWS

Home | Current Version | Previous Version | Text Only | Print | Product List | Glossary Off
Versions: 1 2 3 4 5 6 7 8 9 10 11 12 13 14 15 16 17 18 19 20 21 22 23 24 25 26 27 28 29 30 31 32 33 34 35 36 37 38 39 40 41 42 43 44 45 46 47 48 49 50

000
ASUS43 KOAX 272302
RWRNE

WEATHER ROUNDUP FOR NEBRASKA
NATIONAL WEATHER SERVICE OMAHA NE
600 PM CDT MON MAR 27 2017

NOTES: SATELLITE DATA IS BEING USED TO AUGMENT CLOUD COVER ABOVE
       12000 FEET.
       "FAIR" INDICATES FEW OR NO CLOUDS BELOW 12,000 FEET WITH NO
       SIGNIFICANT WEATHER AND/OR OBSTRUCTIONS TO VISIBILITY.

  * THESE STATIONS DO NOT REPORT WEATHER SUCH AS RAIN...SNOW OR FOG.

NEZ001>004-019>022-054>056-280000-
NEBRASKA PANHANDLE

CITY           SKY/WX    TMP DP  RH WIND       PRES   REMARKS
SCOTTSBLUFF    CLOUDY    63  29  27 S9        29.78F
ALLIANCE       CLOUDY    65  27  23 SW12      29.79S
CHADRON        MOSUNNY   66  29  24 NE9       29.78S
KIMBALL        CLOUDY    61  32  33 SE7       29.82S
SIDNEY         CLOUDY    63  34  33 S12       29.82F
$$

NEZ057>060-069>072-079>082-280000-
SOUTHWEST NEBRASKA

CITY           SKY/WX    TMP DP  RH WIND       PRES   REMARKS
NORTH PLATTE   PTSUNNY   64  40  41 S12       29.84F
IMPERIAL       SUNNY     64  34  32 S7        29.84S
LEXINGTON      SUNNY     59  40  49 SE9       29.89F
MCCOOK         SUNNY     64  44  48 SE14G25   29.85S
OGALLALA       CLOUDY    65  33  30 SE10      29.83S
$$

NEZ005>010-023>029-035>040-094-280000-
NORTH CENTRAL NEBRASKA

CITY           SKY/WX    TMP DP  RH WIND       PRES   REMARKS
VALENTINE      CLOUDY    59  35  40 SE8       29.85S
AINSWORTH      SUNNY     58  40  50 SE7       29.87S
BROKEN BOW     SUNNY     57  42  57 SE10      29.89S
O`NEILL        SUNNY     60  38  45 SE10      29.90S
ORD            MOSUNNY   58  40  51 VRB7      29.89F
THEDFORD       MOSUNNY   65  37  34 S10       29.85S
$$

NEZ041-046>049-061>064-073>077-083>087-280000-
SOUTH CENTRAL NEBRASKA

CITY           SKY/WX    TMP DP  RH WIND       PRES   REMARKS
GRAND ISLAND   SUNNY     54  42  64 E7        29.92F
AURORA         SUNNY     53  41  64 CALM      29.92F
HASTINGS       MOSUNNY   51  42  71 E5        29.94S HAZE
HEBRON         CLOUDY    50  42  74 CALM      29.94S
HOLDREGE       SUNNY     59  42  53 E10       29.90S
KEARNEY *      SUNNY     57  41  54 SE5       29.92S
YORK           SUNNY     52  41  66 CALM      29.94F
$$

NEZ011>018-030>034-042>045-280000-
NORTHEAST NEBRASKA

CITY           SKY/WX    TMP DP  RH WIND       PRES   REMARKS
NORFOLK        SUNNY     58  37  45 S6        29.91F
ALBION         SUNNY     59  37  43 SE6       29.92S
FREMONT        CLOUDY    51  41  68 SE3       29.96S
TEKAMAH        CLOUDY    53  42  66 S6        29.95S
WAYNE          SUNNY     57  40  52 E8        29.93S
$$

NEZ050>053-065>068-078-088>093-280000-
SOUTHEAST NEBRASKA

CITY           SKY/WX    TMP DP  RH WIND       PRES   REMARKS
LINCOLN        MOSUNNY   54  40  59 E6        29.96S
OMAHA EPPLEY   CLOUDY    52  40  63 CALM      29.96S
BEATRICE       CLOUDY    54  43  66 N5        29.94F
FALLS CITY     CLOUDY    53  44  71 N9        29.94S
NEBRASKA CITY  CLOUDY    49  39  69 NE8       29.96S
PLATTSMOUTH    CLOUDY    49  38  66 NE3       29.96S
$$

NEZ044-045-051>053-067-280000-
OMAHA AREA

CITY           SKY/WX    TMP DP  RH WIND       PRES   REMARKS
OMAHA EPPLEY   CLOUDY    52  40  63 CALM      29.96S
FREMONT        CLOUDY    51  41  68 SE3       29.96S
MILLARD        CLOUDY    51  42  71 CALM      29.96S
OFFUTT AFB     CLOUDY    50  40  68 CALM      29.96R
PLATTSMOUTH    CLOUDY    49  38  66 NE3       29.96S
WAHOO          CLOUDY    51  40  67 CALM      29.96S
$$




USA.gov is the U.S. government's official web portal to all federal, state and local government web resources and services.